Regional Weather Roundup
Issued by NWS Green Bay, WI

Home | Current Version | Previous Version | Text Only | Print | Product List | Glossary On
Versions: 1 2 3 4 5 6 7 8 9 10 11 12 13 14 15 16 17 18 19 20 21 22 23 24 25 26 27 28 29 30 31 32 33 34 35 36 37 38 39 40 41 42 43 44 45 46 47 48 49 50
000
ASUS43 KGRB 021710
RWRGRB

NORTH-CENTRAL AND NORTHEAST WISCONSIN REGIONAL WEATHER ROUNDUP
NATIONAL WEATHER SERVICE GREEN BAY WI
1100 AM CST MON MAR 02 2015

WIZ005-009-010>012-018-019-021800-
NORTH CENTRAL WISCONSIN

CITY           SKY/WX    TMP DP  RH WIND       PRES   REMARKS
IRONWOOD       SUNNY     19   7  58 W9        30.36S WCI   9
MANITOWISH WTR SUNNY     18   4  54 W10G16    30.36S WCI   7
ARBOR VITAE    SUNNY     19   5  53 NW8       30.37S WCI   9
EAGLE RIVER    SUNNY     19   3  51 W6        30.36R
LAND O LAKES   SUNNY     21   5  50 W7        30.36R
RHINELANDER    SUNNY     19   5  54 W12       30.39R WCI   7
PHILLIPS       SUNNY     19   2  49 W8        30.40S WCI   8
ANTIGO         SUNNY     19   6  56 W8        30.40R WCI   9
TOMAHAWK       SUNNY     20   3  48 CALM      30.41S
MERRILL        SUNNY     20   6  54 SW6       30.43S
$$

WIZ013-073-021800-
NORTHEAST WISCONSIN

CITY           SKY/WX    TMP DP  RH WIND       PRES   REMARKS
IRON MOUNTAIN  SUNNY     21   4  47 NW8       30.36R
MARINETTE      SUNNY     23   5  46 W3        30.43R
OCONTO         SUNNY     23   6  49 W6        30.47R
$$

WIZ017-030-035>037-045-021800-
CENTRAL WISCONSIN

CITY           SKY/WX    TMP DP  RH WIND       PRES   REMARKS
MEDFORD        SUNNY     17   5  60 SW5       30.42F WCI   9
WAUSAU         SUNNY     18   5  57 NW6       30.43R WCI  10
MOSINEE        SUNNY     19   9  63 SW7       30.45R
MARSHFIELD     SUNNY     17   6  62 W7        30.45F WCI   8
WISC RAPIDS    SUNNY     22   4  46 CALM      30.48F
STEVENS POINT  SUNNY     18   4  55 W5        30.46F
WAUPACA        SUNNY     26   5  41 CALM      30.48S
SHAWANO        SUNNY     24   7  49 W7        30.47R
CLINTONVILLE   SUNNY     23   7  50 W7        30.47S
$$

WIZ038-039-048-051-021800-
FOX VALLEY

CITY           SKY/WX    TMP DP  RH WIND       PRES   REMARKS
NWS GREEN BAY  SUNNY     23   7  50 SW7       30.48R
APPLETON       SUNNY     21   7  53 W5        30.47R
OSHKOSH        SUNNY     22   9  57 CALM      30.48R
FOND DU LAC    SUNNY     23   8  52 W7        30.49R
$$

WIZ022-050-052-021800-
EAST CENTRAL WISCONSIN

CITY           SKY/WX    TMP DP  RH WIND       PRES   REMARKS
STURGEON BAY   SUNNY     21   7  53 W6        30.47R
MANITOWOC      SUNNY     29  10  45 CALM      30.49R
SHEBOYGAN      SUNNY     24   7  48 CALM      30.48R
$$

LMZ563-521-522-541>543-021800-
LAKESHORE

STATION/POSITION TIME  TEMP    WIND        PRES    VSBY  WAVE
                       AIR SEA DIR/SP/G                  HT/PER
                 (UTC) (F)     (DEG/KT/KT) (MB)    (MI)  (FT/S)
SHEBOYGAN LKSHOR 1700   22     230/  3/  5 1033.9R
KEWAUNEE LKSHORE 1700   22     270/  7/  9 1030.5R
NORTHPORT PIER   1700   21     310/  6/ 11 1030.1S
SISTER BAY LKSHO 1600             CALM       N/A
CHAMBERS ISLAND  1700   29     270/  3/  6 1030.5S
MENOMINEE LKSHOR 1700   22     320/  4     1031.1R
$$



USA.gov is the U.S. government's official web portal to all federal, state and local government web resources and services.